| time (UTC) | temp C | wind direction | speed KPH | gust KPH | rain 1hr cm | rain 24hr cm | rain mn cm | humidity % | barometer mb |
| 20260506235647 | 13 | 63 | 0.0 | 3.2 | 0.13 | 0.13 | 0.13 | 97 | 1010.0 |
| 20260506235147 | 13 | 106 | 0.0 | 3.2 | 0.13 | 0.13 | 0.13 | 96 | 1010.2 |
| 20260506234647 | 14 | 65 | 0.0 | 6.4 | 0.13 | 0.13 | 0.13 | 96 | 1010.1 |
| 20260506234147 | 14 | 22 | 0.0 | 1.6 | 0.10 | 0.10 | 0.10 | 96 | 1010.2 |
| 20260506233647 | 14 | 22 | 0.0 | 4.8 | 0.10 | 0.10 | 0.10 | 96 | 1010.2 |
| 20260506233147 | 14 | 26 | 0.0 | 3.2 | 0.10 | 0.10 | 0.10 | 96 | 1010.3 |
| 20260506232647 | 14 | 83 | 0.0 | 0.0 | 0.00 | 0.00 | 0.00 | 95 | 1010.6 |
| 20260506232147 | 14 | 84 | 0.0 | 1.6 | 0.00 | 0.00 | 0.00 | 95 | 1010.6 |
| 20260506231647 | 14 | 89 | 0.0 | 3.2 | 0.00 | 0.00 | 0.00 | 95 | 1010.7 |
| 20260506231147 | 14 | 89 | 0.0 | 3.2 | 0.00 | 0.00 | 0.00 | 94 | 1010.8 |
| 20260506230647 | 14 | 12 | 0.0 | 1.6 | 0.00 | 0.00 | 0.00 | 95 | 1010.6 |
| 20260506230147 | 14 | 43 | 0.0 | 3.2 | 0.00 | 0.00 | 0.00 | 94 | 1010.6 |
| 20260506225647 | 14 | 60 | 0.0 | 3.2 | 0.00 | 0.00 | 0.00 | 94 | 1010.6 |
| 20260506225147 | 14 | 57 | 0.0 | 1.6 | 0.00 | 0.00 | 0.00 | 94 | 1010.7 |
| 20260506224647 | 14 | 61 | 0.0 | 4.8 | 0.00 | 0.00 | 0.00 | 94 | 1010.5 |
| 20260506224147 | 14 | 39 | 0.0 | 1.6 | 0.00 | 0.00 | 0.00 | 94 | 1010.4 |
| 20260506223647 | 14 | 71 | 1.6 | 4.8 | 0.00 | 0.00 | 0.00 | 94 | 1010.4 |
| 20260506223147 | 14 | 136 | 1.6 | 4.8 | 0.00 | 0.00 | 0.00 | 94 | 1010.3 |
| 20260506222647 | 14 | 268 | 1.6 | 4.8 | 0.00 | 0.00 | 0.00 | 95 | 1010.0 |
| 20260506222147 | 14 | 68 | 1.6 | 6.4 | 0.00 | 0.00 | 0.00 | 95 | 1009.6 |
| 20260506221647 | 14 | 23 | 1.6 | 8.0 | 0.00 | 0.00 | 0.00 | 94 | 1009.4 |
| 20260506221147 | 13 | 359 | 1.6 | 9.7 | 0.00 | 0.00 | 0.00 | 95 | 1009.6 |
| 20260506220651 | 13 | 260 | 0.0 | 3.2 | 0.00 | 0.00 | 0.00 | 95 | 1009.7 |
| 20260506220147 | 13 | 32 | 1.6 | 4.8 | 0.00 | 0.00 | 0.00 | 96 | 1009.3 |
| 20260506215647 | 13 | 25 | 1.6 | 8.0 | 0.00 | 0.00 | 0.00 | 95 | 1009.7 |
| 20260506215147 | 13 | 89 | 1.6 | 6.4 | 0.00 | 0.00 | 0.00 | 95 | 1009.6 |
| 20260506214647 | 13 | 161 | 1.6 | 6.4 | 0.00 | 0.00 | 0.00 | 96 | 1010.2 |
| 20260506214149 | 13 | 20 | 1.6 | 3.2 | 0.00 | 0.00 | 0.00 | 97 | 1010.6 |
| 20260506213657 | 13 | 166 | 3.2 | 4.8 | 0.00 | 0.00 | 0.00 | 96 | 1010.6 |
| 20260506213147 | 13 | 30 | 3.2 | 6.4 | 0.00 | 0.00 | 0.00 | 96 | 1010.8 |
| 20260506212647 | 13 | 348 | 1.6 | 8.0 | 0.00 | 0.00 | 0.00 | 97 | 1010.7 |
| 20260506212147 | 13 | 8 | 1.6 | 3.2 | 0.00 | 0.00 | 0.00 | 96 | 1010.7 |
| 20260506211647 | 13 | 12 | 1.6 | 4.8 | 0.00 | 0.00 | 0.00 | 96 | 1011.0 |
| 20260506211147 | 13 | 272 | 1.6 | 4.8 | 0.00 | 0.00 | 0.00 | 96 | 1011.2 |
| 20260506210648 | 14 | 354 | 3.2 | 6.4 | 0.00 | 0.00 | 0.00 | 96 | 1011.3 |
| 20260506210149 | 14 | 20 | 1.6 | 6.4 | 0.00 | 0.00 | 0.00 | 96 | 1011.2 |
| 20260506205648 | 14 | 304 | 3.2 | 4.8 | 0.00 | 0.00 | 0.00 | 96 | 1011.1 |
| 20260506205152 | 15 | 23 | 3.2 | 6.4 | 0.00 | 0.00 | 0.00 | 95 | 1011.0 |
| 20260506204648 | 15 | 28 | 4.8 | 6.4 | 0.00 | 0.00 | 0.00 | 94 | 1011.2 |
| 20260506204148 | 15 | 7 | 3.2 | 6.4 | 0.00 | 0.00 | 0.00 | 94 | 1011.0 |
| 20260506203648 | 15 | 359 | 1.6 | 6.4 | 0.00 | 0.00 | 0.00 | 94 | 1011.0 |
| 20260506203150 | 15 | 356 | 1.6 | 3.2 | 0.00 | 0.00 | 0.00 | 94 | 1010.8 |
| 20260506202648 | 15 | 0 | 1.6 | 4.8 | 0.00 | 0.00 | 0.00 | 94 | 1010.4 |
| 20260506202150 | 15 | 47 | 1.6 | 3.2 | 0.00 | 0.00 | 0.00 | 94 | 1010.3 |
| 20260506201716 | 15 | 1 | 1.6 | 3.2 | 0.00 | 0.00 | 0.00 | 94 | 1010.3 |
| 20260506201148 | 15 | 9 | 1.6 | 3.2 | 0.00 | 0.00 | 0.00 | 94 | 1010.2 |
| 20260506200702 | 15 | 9 | 1.6 | 3.2 | 0.00 | 0.00 | 0.00 | 94 | 1010.2 |
| 20260506200150 | 15 | 358 | 1.6 | 3.2 | 0.00 | 0.00 | 0.00 | 94 | 1010.3 |
| 20260506195650 | 15 | 309 | 1.6 | 4.8 | 0.00 | 0.00 | 0.00 | 95 | 1010.3 |
| 20260506195148 | 15 | 25 | 1.6 | 4.8 | 0.00 | 0.00 | 0.00 | 94 | 1010.3 |
| 20260506194648 | 16 | 355 | 1.6 | 8.0 | 0.00 | 0.00 | 0.00 | 94 | 1010.6 |
| 20260506194148 | 16 | 7 | 1.6 | 8.0 | 0.00 | 0.00 | 0.00 | 94 | 1010.5 |
| 20260506193648 | 16 | 30 | 1.6 | 4.8 | 0.00 | 0.00 | 0.00 | 95 | 1010.6 |
| 20260506193150 | 16 | 13 | 1.6 | 3.2 | 0.00 | 0.00 | 0.00 | 95 | 1010.6 |
| 20260506192648 | 16 | 13 | 1.6 | 8.0 | 0.00 | 0.00 | 0.00 | 94 | 1010.7 |
| 20260506192148 | 16 | 359 | 1.6 | 4.8 | 0.00 | 0.00 | 0.00 | 95 | 1010.7 |
| 20260506191650 | 16 | 302 | 1.6 | 3.2 | 0.00 | 0.00 | 0.00 | 95 | 1010.8 |
| 20260506191148 | 16 | 3 | 1.6 | 3.2 | 0.00 | 0.00 | 0.00 | 94 | 1010.6 |
| 20260506190648 | 16 | 342 | 1.6 | 4.8 | 0.00 | 0.00 | 0.00 | 94 | 1010.6 |
| 20260506190148 | 16 | 352 | 1.6 | 3.2 | 0.00 | 0.00 | 0.00 | 95 | 1010.6 |
| 20260506185716 | 16 | 331 | 1.6 | 3.2 | 0.00 | 0.00 | 0.00 | 94 | 1010.7 |
| 20260506185152 | 16 | 5 | 1.6 | 3.2 | 0.00 | 0.00 | 0.00 | 94 | 1010.6 |
| 20260506184648 | 16 | 6 | 0.0 | 3.2 | 0.00 | 0.00 | 0.00 | 95 | 1010.6 |
| 20260506184151 | 16 | 18 | 1.6 | 1.6 | 0.00 | 0.00 | 0.00 | 96 | 1010.3 |
| 20260506183715 | 16 | 18 | 1.6 | 3.2 | 0.00 | 0.00 | 0.00 | 95 | 1010.3 |
| 20260506183148 | 16 | 20 | 1.6 | 4.8 | 0.00 | 0.00 | 0.00 | 95 | 1010.3 |
| 20260506182648 | 16 | 6 | 1.6 | 3.2 | 0.00 | 0.00 | 0.00 | 95 | 1010.6 |
| 20260506182148 | 16 | 16 | 1.6 | 4.8 | 0.00 | 0.00 | 0.00 | 96 | 1010.6 |
| 20260506181648 | 16 | 4 | 1.6 | 3.2 | 0.00 | 0.00 | 0.00 | 95 | 1010.6 |
| 20260506181148 | 16 | 359 | 1.6 | 4.8 | 0.00 | 0.00 | 0.00 | 95 | 1010.8 |
| 20260506180650 | 16 | 11 | 1.6 | 4.8 | 0.00 | 0.00 | 0.00 | 95 | 1010.7 |
| 20260506180148 | 16 | 295 | 1.6 | 4.8 | 0.00 | 0.00 | 0.00 | 95 | 1010.6 |
| 20260506175648 | 16 | 259 | 1.6 | 4.8 | 0.00 | 0.00 | 0.00 | 95 | 1010.6 |
| 20260506175150 | 16 | 1 | 1.6 | 3.2 | 0.00 | 0.00 | 0.00 | 95 | 1010.4 |
| 20260506174648 | 16 | 319 | 1.6 | 1.6 | 0.00 | 0.00 | 0.00 | 97 | 1010.6 |
| 20260506174148 | 16 | 318 | 1.6 | 3.2 | 0.00 | 0.00 | 0.00 | 96 | 1010.5 |
| 20260506173652 | 16 | 20 | 1.6 | 4.8 | 0.00 | 0.00 | 0.00 | 96 | 1010.7 |
| 20260506173148 | 16 | 359 | 1.6 | 3.2 | 0.00 | 0.00 | 0.00 | 96 | 1010.8 |
| 20260506172648 | 16 | 12 | 1.6 | 4.8 | 0.00 | 0.00 | 0.00 | 96 | 1010.8 |
| 20260506172148 | 16 | 20 | 1.6 | 3.2 | 0.00 | 0.00 | 0.00 | 96 | 1010.8 |
| 20260506171652 | 16 | 15 | 1.6 | 3.2 | 0.00 | 0.00 | 0.00 | 96 | 1010.9 |
| 20260506171152 | 16 | 28 | 1.6 | 4.8 | 0.00 | 0.00 | 0.00 | 96 | 1010.7 |
| 20260506170648 | 16 | 22 | 1.6 | 4.8 | 0.00 | 0.00 | 0.00 | 96 | 1010.6 |
| 20260506170148 | 16 | 359 | 1.6 | 3.2 | 0.00 | 0.00 | 0.00 | 96 | 1010.5 |
| 20260506165648 | 16 | 46 | 1.6 | 4.8 | 0.00 | 0.00 | 0.00 | 96 | 1010.5 |
| 20260506165148 | 16 | 1 | 3.2 | 4.8 | 0.00 | 0.00 | 0.00 | 96 | 1010.5 |
| 20260506164648 | 16 | 1 | 3.2 | 4.8 | 0.00 | 0.00 | 0.00 | 95 | 1010.5 |
| 20260506164214 | 17 | 4 | 1.6 | 4.8 | 0.00 | 0.00 | 0.00 | 95 | 1010.4 |
| 20260506163650 | 17 | 1 | 1.6 | 3.2 | 0.00 | 0.00 | 0.00 | 96 | 1010.3 |
| 20260506163148 | 17 | 1 | 1.6 | 3.2 | 0.00 | 0.00 | 0.00 | 96 | 1010.3 |
| 20260506162648 | 17 | 11 | 1.6 | 3.2 | 0.00 | 0.00 | 0.00 | 97 | 1010.4 |
| 20260506162148 | 18 | 12 | 1.6 | 3.2 | 0.00 | 0.00 | 0.00 | 97 | 1010.1 |
| 20260506161648 | 18 | 13 | 1.6 | 3.2 | 0.00 | 0.00 | 0.00 | 97 | 1010.0 |
| 20260506161157 | 18 | 15 | 1.6 | 3.2 | 0.00 | 0.00 | 0.00 | 97 | 1009.9 |
| 20260506160648 | 18 | 15 | 1.6 | 3.2 | 0.00 | 0.00 | 0.00 | 97 | 1009.9 |
| 20260506160148 | 18 | 13 | 1.6 | 3.2 | 0.00 | 0.00 | 0.00 | 97 | 1009.9 |
| 20260506155652 | 18 | 15 | 1.6 | 6.4 | 0.00 | 0.00 | 0.00 | 97 | 1009.7 |
| 20260506155150 | 18 | 10 | 1.6 | 3.2 | 0.00 | 0.00 | 0.00 | 97 | 1009.8 |
| 20260506154648 | 18 | 3 | 1.6 | 3.2 | 0.00 | 0.00 | 0.00 | 97 | 1009.6 |
| 20260506154148 | 18 | 37 | 1.6 | 4.8 | 0.00 | 0.00 | 0.00 | 97 | 1009.6 |
| 20260506153650 | 18 | 20 | 1.6 | 3.2 | 0.00 | 0.00 | 0.00 | 97 | 1009.6 |
| 20260506153148 | 19 | 5 | 0.0 | 4.8 | 0.00 | 0.00 | 0.00 | 98 | 1009.6 |
| 20260506152648 | 19 | 5 | 0.0 | 4.8 | 0.00 | 0.00 | 0.00 | 98 | 1009.6 |
| 20260506152148 | 19 | 256 | 0.0 | 1.6 | 0.00 | 0.00 | 0.00 | 98 | 1009.5 |
| 20260506151648 | 19 | 165 | 0.0 | 1.6 | 0.00 | 0.00 | 0.00 | 98 | 1009.6 |
| 20260506151148 | 19 | 165 | 410.4 | 410.4 | 0.00 | 0.00 | 0.00 | 98 | 1009.2 |
| 20260506150648 | -17 | 767 | 410.4 | 410.4 | 0.00 | 0.00 | 0.00 | ||
| 20260506150148 | -17 | 767 | 410.4 | 410.4 | 0.00 | 0.00 | 0.00 | ||
| 20260506123957 | -17 | 767 | 410.4 | 410.4 | 0.00 | 0.00 | 0.00 | ||
| 20260506123252 | -17 | 767 | 410.4 | 410.4 | 0.00 | 0.00 | 0.00 | ||
| 20260506031925 | 21 | 179 | 1.6 | 3.2 | 0.00 | 0.00 | 0.00 | 89 | 1006.9 |
| 20260506031417 | 21 | 205 | 1.6 | 4.8 | 0.00 | 0.00 | 0.00 | 89 | 1006.9 |
| 20260506030917 | 21 | 213 | 1.6 | 3.2 | 0.00 | 0.00 | 0.00 | 89 | 1006.9 |
| 20260506030417 | 21 | 233 | 1.6 | 4.8 | 0.00 | 0.00 | 0.00 | 89 | 1007.0 |
| 20260506025917 | 21 | 86 | 3.2 | 6.4 | 0.00 | 0.00 | 0.00 | 89 | 1006.9 |
| 20260506025417 | 21 | 256 | 1.6 | 6.4 | 0.00 | 0.00 | 0.00 | 89 | 1006.8 |
| 20260506024917 | 21 | 238 | 1.6 | 3.2 | 0.00 | 0.00 | 0.00 | 88 | 1006.7 |
| 20260506024417 | 21 | 161 | 1.6 | 6.4 | 0.00 | 0.00 | 0.00 | 88 | 1006.7 |
| 20260506023917 | 21 | 272 | 1.6 | 3.2 | 0.00 | 0.00 | 0.00 | 88 | 1006.8 |
| 20260506023417 | 21 | 177 | 1.6 | 4.8 | 0.00 | 0.00 | 0.00 | 88 | 1006.9 |
| 20260506022945 | 21 | 198 | 1.6 | 8.0 | 0.00 | 0.00 | 0.00 | 88 | 1006.8 |
| 20260506022418 | 21 | 164 | 1.6 | 4.8 | 0.00 | 0.00 | 0.00 | 88 | 1006.7 |
| 20260506021917 | 21 | 180 | 3.2 | 8.0 | 0.00 | 0.00 | 0.00 | 88 | 1006.7 |
| 20260506021417 | 21 | 211 | 1.6 | 8.0 | 0.00 | 0.00 | 0.00 | 88 | 1006.6 |
| 20260506020917 | 21 | 144 | 1.6 | 6.4 | 0.00 | 0.00 | 0.00 | 88 | 1006.6 |
| 20260506020417 | 21 | 169 | 3.2 | 6.4 | 0.00 | 0.00 | 0.00 | 88 | 1006.5 |
| 20260506015917 | 21 | 172 | 3.2 | 9.7 | 0.00 | 0.00 | 0.00 | 88 | 1006.3 |
| 20260506015417 | 21 | 179 | 3.2 | 11.3 | 0.00 | 0.00 | 0.00 | 88 | 1006.3 |
| 20260506014946 | 21 | 169 | 3.2 | 9.7 | 0.00 | 0.00 | 0.00 | 88 | 1006.3 |
| 20260506014417 | 21 | 193 | 3.2 | 11.3 | 0.00 | 0.00 | 0.00 | 88 | 1006.2 |
| 20260506013917 | 21 | 225 | 3.2 | 6.4 | 0.00 | 0.00 | 0.00 | 88 | 1006.4 |
| 20260506013417 | 21 | 238 | 4.8 | 11.3 | 0.00 | 0.00 | 0.00 | 88 | 1006.1 |